Location: Little Baddow
(51.7333°N, 0.5667°E)
Time: 10:18:22
(UTC+00:00)

Cosmos 371 Rocket - Pass Details

Date: 08 November 2025
Orbit: 674 x 690 km, 74.0° (Epoch: 11 December)

Event Time Altitude Azimuth Distance (km) Brightness Sun altitude
Rises 06:23:04 0° 331° (NNW) 3,073 6.2 -6.8°
Reaches altitude 10° 06:25:26 10° 327° (NNW) 2,153 5.4 -6.4°
Maximum altitude 06:30:08 52° 252° (WSW) 858 3.5 -5.7°
Drops below altitude 10° 06:34:49 10° 176° (S) 2,139 6.2 -5.1°
Sets 06:37:09 0° 172° (S) 3,051 7.0 -4.7°
